This is the latest recevied weather packets stored in our database for station/object DF7ER-12. If no packets are shown the sender has not sent any weather packets the latest 10 day(s).
| Time | Temp. | Humidity | Pressure | Rain* | Wind** | Luminosity | Snow |
|---|---|---|---|---|---|---|---|
| 1788668331 | 15° C | 90% | 1014.4 hPa | - | - | - | - |
| 1788668031 | 15° C | 90% | 1014.3 hPa | - | - | - | - |
| 1788667733 | 15.56° C | 88% | 1014.3 hPa | - | - | - | - |
| 1788666262 | 15.56° C | 88% | 1014.2 hPa | - | - | - | - |
| 1788665963 | 15.56° C | 89% | 1014.3 hPa | - | - | - | - |
| 1788665662 | 15.56° C | 88% | 1014.3 hPa | - | - | - | - |
| 1788665377 | 15.56° C | 90% | 1014.3 hPa | - | - | - | - |
| 1788665062 | 15.56° C | 89% | 1014.4 hPa | - | - | - | - |
| 1788664762 | 15.56° C | 92% | 1014.4 hPa | - | - | - | - |
| 1788664463 | 15.56° C | 91% | 1014.4 hPa | - | - | - | - |
| 1788664162 | 15.56° C | 91% | 1014.3 hPa | - | - | - | - |
| 1788662401 | 16.11° C | 87% | 1014 hPa | - | - | - | - |
| 1788662101 | 16.11° C | 86% | 1014 hPa | - | - | - | - |
| 1788661801 | 16.67° C | 87% | 1014 hPa | - | - | - | - |
| 1788661501 | 16.67° C | 86% | 1014 hPa | - | - | - | - |
| 1788661201 | 16.11° C | 87% | 1013.9 hPa | - | - | - | - |
| 1788660901 | 16.11° C | 87% | 1013.9 hPa | - | - | - | - |
| 1788660601 | 16.67° C | 87% | 1013.9 hPa | - | - | - | - |
| 1788660348 | 16.11° C | 88% | 1013.8 hPa | - | - | - | - |
| 1788660001 | 16.67° C | 88% | 1013.9 hPa | - | - | - | - |
| 1788659882 | 16.11° C | 88% | 1013.8 hPa | - | - | - | - |
| 1788659401 | 16.67° C | 88% | 1013.7 hPa | - | - | - | - |
| 1788659152 | 16.67° C | 87% | 1013.7 hPa | - | - | - | - |
| 1788658801 | 16.67° C | 87% | 1013.6 hPa | - | - | - | - |
| 1788658501 | 16.11° C | 89% | 1013.7 hPa | - | - | - | - |
* Rain since midnight (hover to see other rain measurements)
** Current wind speed in m/s (hover to see current wind gust speed)